Location: Puketoi
(40.5833°S, 176.0167°E)
Time: 15:53:09
(UTC+00:00)

PAYLOAD A - Pass Details

Date: 01 October 2023
Orbit: 692 x 830 km, 98.5° (Epoch: 01 December)

Event Time Altitude Azimuth Distance (km) Brightness Sun altitude
Exits shadow 15:12:34 42° 207° (SSW) 1,181 4.9 -28.9°
Drops below altitude 10° 15:16:11 10° 197° (SSW) 2,471 6.8 -28.3°
Sets 15:18:35 0° 194° (SSW) 3,409 7.6 -27.9°
